,,,PA_Meas_PMT16A,,PR_Meas_QMR101_102,,RH_Meas_QMH101,,SR_Meas_QMS101,,TA_Meas_QMH101,,GenWind,,GenWind,
date,time,status,PA,status,PR,status,RH,status,SR,status,TA,status,DirAvg,status,SpdAvg,
2011-10-10, 00:00:04,VALID,1005.7,VALID,0,VALID,93.5224,VALID,0,VALID,24.0521,VALID,354,VALID,0.188672,
2011-10-10, 00:01:04,VALID,1005.69,VALID,0,VALID,93.3775,VALID,0,VALID,24.0326,VALID,354,VALID,0.288281,
2011-10-10, 00:02:04,VALID,1005.68,VALID,0,VALID,93.1486,VALID,0,VALID,24.0326,VALID,354,VALID,0.15625,
2011-10-10, 00:03:04,VALID,1005.68,VALID,0,VALID,93.1029,VALID,0,VALID,24.0716,VALID,354,VALID,0.308203,
2011-10-10, 00:04:04,VALID,1005.68,VALID,0,VALID,93.0647,VALID,0,VALID,24.0716,VALID,354,VALID,0.232812,
2011-10-10, 00:05:04,VALID,1005.66,VALID,0,VALID,93.0266,VALID,0,VALID,24.0716,VALID,354,VALID,0.165625,
2011-10-10, 00:06:04,VALID,1005.63,VALID,0,VALID,93.1486,VALID,0,VALID,24.0734,VALID,354,VALID,0,
2011-10-10, 00:07:04,VALID,1005.64,VALID,0,VALID,93.1715,VALID,0,VALID,24.0539,VALID,354,VALID,0,
2011-10-10, 00:08:04,VALID,1005.61,VALID,0,VALID,93.2554,VALID,0,VALID,24.0132,VALID,354,VALID,0,
2011-10-10, 00:09:04,VALID,1005.63,VALID,0,VALID,93.2554,VALID,0,VALID,23.9937,VALID,354,VALID,0,
2011-10-10, 00:10:04,VALID,1005.57,VALID,0,VALID,93.347,VALID,0,VALID,23.9742,VALID,354,VALID,0,
2011-10-10, 00:11:04,VALID,1005.55,VALID,0,VALID,93.4004,VALID,0,VALID,23.9761,VALID,354,VALID,0,
2011-10-10, 00:12:04,VALID,1005.53,VALID,0,VALID,93.4919,VALID,0,VALID,23.9371,VALID,354,VALID,0,
2011-10-10, 00:13:04,VALID,1005.5,VALID,0,VALID,93.5606,VALID,0,VALID,23.9371,VALID,354,VALID,0,
2011-10-10, 00:14:04,VALID,1005.48,VALID,0,VALID,93.6064,VALID,0,VALID,23.8769,VALID,354,VALID,0,
2011-10-10, 00:15:04,VALID,1005.48,VALID,0,VALID,93.7666,VALID,0,VALID,23.8575,VALID,354,VALID,0,
2011-10-10, 00:16:04,VALID,1005.48,VALID,0,VALID,93.8734,VALID,0,VALID,23.838,VALID,354,VALID,0,
2011-10-10, 00:17:04,VALID,1005.45,VALID,0,VALID,93.9039,VALID,0,VALID,23.8185,VALID,354,VALID,0,
2011-10-10, 00:18:04,VALID,1005.49,VALID,0,VALID,93.9573,VALID,0,VALID,23.8185,VALID,354,VALID,0,
2011-10-10, 00:19:04,VALID,1005.48,VALID,0,VALID,94.1862,VALID,0.0815089,VALID,23.8167,VALID,354,VALID,0,
2011-10-10, 00:20:04,VALID,1005.47,VALID,0,VALID,94.2319,VALID,0,VALID,23.8185,VALID,354,VALID,0,
2011-10-10, 00:21:04,VALID,1005.49,VALID,0,VALID,94.2167,VALID,0.0815089,VALID,23.7991,VALID,354,VALID,0,
2011-10-10, 00:22:04,VALID,1005.49,VALID,0,VALID,94.3082,VALID,0.0815089,VALID,23.7778,VALID,354,VALID,0,
2011-10-10, 00:23:04,VALID,1005.46,VALID,0,VALID,94.3464,VALID,0.0815089,VALID,23.7796,VALID,354,VALID,0,
2011-10-10, 00:24:04,VALID,1005.43,VALID,0,VALID,94.3311,VALID,0,VALID,23.7796,VALID,354,VALID,0,
2011-10-10, 00:25:04,VALID,1005.45,VALID,0,VALID,94.4074,VALID,0.0815089,VALID,23.7796,VALID,354,VALID,0,
2011-10-10, 00:26:04,VALID,1005.43,VALID,0,VALID,94.3769,VALID,0.0815089,VALID,23.7796,VALID,354,VALID,0,
2011-10-10, 00:27:04,VALID,1005.4,VALID,0,VALID,94.3464,VALID,0,VALID,23.7796,VALID,354,VALID,0,
2011-10-10, 00:28:04,VALID,1005.37,VALID,0,VALID,94.3464,VALID,0,VALID,23.7601,VALID,354,VALID,0,
2011-10-10, 00:29:04,VALID,1005.33,VALID,0,VALID,94.3769,VALID,0.0815089,VALID,23.7601,VALID,354,VALID,0,
2011-10-10, 00:30:04,VALID,1005.29,VALID,0,VALID,94.4684,VALID,0,VALID,23.7601,VALID,354,VALID,0,
2011-10-10, 00:31:04,VALID,1005.29,VALID,0,VALID,94.5371,VALID,0,VALID,23.7194,VALID,354,VALID,0,
2011-10-10, 00:32:04,VALID,1005.29,VALID,0,VALID,94.6668,VALID,0.0815089,VALID,23.7601,VALID,354,VALID,0,
2011-10-10, 00:33:04,VALID,1005.26,VALID,0,VALID,94.6897,VALID,0,VALID,23.7407,VALID,354,VALID,0,
2011-10-10, 00:34:04,VALID,1005.28,VALID,0,VALID,94.6591,VALID,0,VALID,23.7425,VALID,354,VALID,0,
2011-10-10, 00:35:04,VALID,1005.27,VALID,0,VALID,94.6591,VALID,0,VALID,23.7017,VALID,354,VALID,0,
2011-10-10, 00:36:04,VALID,1005.26,VALID,0,VALID,94.621,VALID,0,VALID,23.6628,VALID,354,VALID,0,
2011-10-10, 00:37:04,VALID,1005.28,VALID,0,VALID,94.6134,VALID,0,VALID,23.6646,VALID,354,VALID,0,
2011-10-10, 00:38:04,VALID,1005.25,VALID,0,VALID,94.827,VALID,0,VALID,23.6628,VALID,354,VALID,0,
2011-10-10, 00:39:04,VALID,1005.25,VALID,0,VALID,94.8956,VALID,0,VALID,23.6628,VALID,354,VALID,0,
2011-10-10, 00:40:04,VALID,1005.24,VALID,0,VALID,94.949,VALID,0,VALID,23.6628,VALID,354,VALID,0,
2011-10-10, 00:41:04,VALID,1005.2,VALID,0,VALID,94.9567,VALID,0,VALID,23.6841,VALID,354,VALID,0,
2011-10-10, 00:42:04,VALID,1005.18,VALID,0,VALID,94.9643,VALID,0,VALID,23.6646,VALID,354,VALID,0,
2011-10-10, 00:43:04,VALID,1005.18,VALID,0,VALID,94.9796,VALID,0,VALID,23.6841,VALID,354,VALID,0,
2011-10-10, 00:44:04,VALID,1005.16,VALID,0,VALID,94.9643,VALID,0,VALID,23.6434,VALID,354,VALID,0,
2011-10-10, 00:45:04,VALID,1005.17,VALID,0,VALID,94.9262,VALID,0,VALID,23.6628,VALID,354,VALID,0.122656,
2011-10-10, 00:46:04,VALID,1005.16,VALID,0,VALID,94.888,VALID,0,VALID,23.6434,VALID,354,VALID,0.312891,
2011-10-10, 00:47:04,VALID,1005.14,VALID,0,VALID,94.8651,VALID,0,VALID,23.6257,VALID,354,VALID,0.148438,
2011-10-10, 00:48:04,VALID,1005.13,VALID,0,VALID,94.9033,VALID,0,VALID,23.585,VALID,354,VALID,0.220703,
2011-10-10, 00:49:04,VALID,1005.11,VALID,0,VALID,94.9414,VALID,0,VALID,23.585,VALID,354,VALID,0.195313,
2011-10-10, 00:50:04,VALID,1005.1,VALID,0,VALID,94.9796,VALID,0,VALID,23.5868,VALID,354,VALID,0.357812,
2011-10-10, 00:51:04,VALID,1005.06,VALID,0,VALID,95.0787,VALID,0,VALID,23.5868,VALID,354,VALID,0.308203,
2011-10-10, 00:52:04,VALID,1005.09,VALID,0,VALID,95.0558,VALID,0,VALID,23.5673,VALID,354,VALID,0.347656,
2011-10-10, 00:53:04,VALID,1005.06,VALID,0,VALID,95.1016,VALID,0,VALID,23.5478,VALID,354,VALID,0.285156,
2011-10-10, 00:54:04,VALID,1005.03,VALID,0,VALID,95.1093,VALID,0,VALID,23.5478,VALID,354,VALID,0.430469,
2011-10-10, 00:55:04,VALID,1005.01,VALID,0,VALID,95.2008,VALID,0,VALID,23.5266,VALID,354,VALID,0.400391,
2011-10-10, 00:56:04,VALID,1004.98,VALID,0,VALID,95.2695,VALID,0,VALID,23.546,VALID,354,VALID,0.517969,
2011-10-10, 00:57:04,VALID,1004.96,VALID,0,VALID,95.2618,VALID,0,VALID,23.5478,VALID,354,VALID,0.139062,
2011-10-10, 00:58:04,VALID,1004.92,VALID,0,VALID,95.2542,VALID,0,VALID,23.5266,VALID,354,VALID,0.377344,
2011-10-10, 00:59:04,VALID,1004.91,VALID,0,VALID,95.3152,VALID,0,VALID,23.5673,VALID,354,VALID,0.387891,
2011-10-10, 01:00:04,VALID,1004.88,VALID,0,VALID,95.2847,VALID,0,VALID,23.5478,VALID,354,VALID,0.426562,
2011-10-10, 01:01:04,VALID,1004.89,VALID,0,VALID,95.3305,VALID,0,VALID,23.5478,VALID,354,VALID,0.219922,
2011-10-10, 01:02:04,VALID,1004.83,VALID,0,VALID,95.422,VALID,0,VALID,23.546,VALID,354,VALID,0.367188,
2011-10-10, 01:03:04,VALID,1004.81,VALID,0,VALID,95.4068,VALID,0,VALID,23.5673,VALID,354,VALID,0.312891,
2011-10-10, 01:04:04,VALID,1004.8,VALID,0,VALID,95.3915,VALID,0,VALID,23.546,VALID,354,VALID,0.332812,
2011-10-10, 01:05:04,VALID,1004.8,VALID,0,VALID,95.4602,VALID,0,VALID,23.5673,VALID,354,VALID,0.191016,
2011-10-10, 01:06:04,VALID,1004.76,VALID,0,VALID,95.4983,VALID,0,VALID,23.546,VALID,354,VALID,0.262891,
2011-10-10, 01:07:04,VALID,1004.75,VALID,0,VALID,95.4526,VALID,0,VALID,23.5655,VALID,354,VALID,0.309766,
2011-10-10, 01:08:04,VALID,1004.72,VALID,0,VALID,95.4449,VALID,0,VALID,23.5673,VALID,354,VALID,0.0667969,
2011-10-10, 01:09:04,VALID,1004.72,VALID,0,VALID,95.4144,VALID,0,VALID,23.5478,VALID,354,VALID,0.0449219,
2011-10-10, 01:10:04,VALID,1004.7,VALID,0,VALID,95.3763,VALID,0,VALID,23.546,VALID,354,VALID,0.221875,
2011-10-10, 01:11:04,VALID,1004.7,VALID,0,VALID,95.4068,VALID,0,VALID,23.5478,VALID,354,VALID,0.352734,
2011-10-10, 01:12:04,VALID,1004.68,VALID,0,VALID,95.3915,VALID,0,VALID,23.5266,VALID,354,VALID,0.326953,
2011-10-10, 01:13:04,VALID,1004.71,VALID,0,VALID,95.4449,VALID,0,VALID,23.5284,VALID,354,VALID,0.242188,
2011-10-10, 01:14:04,VALID,1004.7,VALID,0,VALID,95.4907,VALID,0,VALID,23.5071,VALID,354,VALID,0.189063,
2011-10-10, 01:15:04,VALID,1004.7,VALID,0,VALID,95.5136,VALID,0,VALID,23.5071,VALID,354,VALID,0.304688,
2011-10-10, 01:16:04,VALID,1004.74,VALID,0,VALID,95.5212,VALID,0,VALID,23.5266,VALID,354,VALID,0.355078,
2011-10-10, 01:17:04,VALID,1004.75,VALID,0,VALID,95.5288,VALID,0,VALID,23.5266,VALID,354,VALID,0.255469,
2011-10-10, 01:18:04,VALID,1004.73,VALID,0,VALID,95.5746,VALID,0,VALID,23.5266,VALID,354,VALID,0.274609,
2011-10-10, 01:19:04,VALID,1004.74,VALID,0,VALID,95.5899,VALID,0,VALID,23.5266,VALID,354,VALID,0.297266,
2011-10-10, 01:20:04,VALID,1004.72,VALID,0,VALID,95.5822,VALID,0,VALID,23.546,VALID,354,VALID,0.285937,
2011-10-10, 01:21:04,VALID,1004.72,VALID,0,VALID,95.6051,VALID,0,VALID,23.5673,VALID,354,VALID,0.215625,
2011-10-10, 01:22:04,VALID,1004.69,VALID,0,VALID,95.6128,VALID,0,VALID,23.5691,VALID,354,VALID,0.271484,
2011-10-10, 01:23:04,VALID,1004.68,VALID,0,VALID,95.6051,VALID,0,VALID,23.5673,VALID,354,VALID,0.207813,
2011-10-10, 01:24:04,VALID,1004.66,VALID,0,VALID,95.5975,VALID,0,VALID,23.5478,VALID,354,VALID,0.293359,
2011-10-10, 01:25:04,VALID,1004.66,VALID,0,VALID,95.5746,VALID,0,VALID,23.5673,VALID,354,VALID,0.226172,
2011-10-10, 01:26:04,VALID,1004.66,VALID,0,VALID,95.5975,VALID,0,VALID,23.546,VALID,354,VALID,0.384766,
2011-10-10, 01:27:04,VALID,1004.63,VALID,0,VALID,95.5365,VALID,0,VALID,23.5266,VALID,354,VALID,0.437109,
2011-10-10, 01:28:04,VALID,1004.6,VALID,0,VALID,95.5212,VALID,0,VALID,23.5478,VALID,354,VALID,0.0917969,
2011-10-10, 01:29:04,VALID,1004.6,VALID,0,VALID,95.5517,VALID,0,VALID,23.5478,VALID,354,VALID,0.392578,
2011-10-10, 01:30:04,VALID,1004.59,VALID,0,VALID,95.5288,VALID,0,VALID,23.5071,VALID,354,VALID,0.383984,
2011-10-10, 01:31:04,VALID,1004.59,VALID,0,VALID,95.5594,VALID,0,VALID,23.5071,VALID,354,VALID,0.320313,
2011-10-10, 01:32:04,VALID,1004.61,VALID,0,VALID,95.567,VALID,0,VALID,23.5284,VALID,354,VALID,0.405859,
2011-10-10, 01:33:04,VALID,1004.6,VALID,0,VALID,95.5365,VALID,0,VALID,23.5071,VALID,354,VALID,0.364844,
2011-10-10, 01:34:04,VALID,1004.58,VALID,0,VALID,95.5899,VALID,0,VALID,23.5071,VALID,354,VALID,0.465234,
2011-10-10, 01:35:04,VALID,1004.55,VALID,0,VALID,95.5746,VALID,0,VALID,23.5284,VALID,354,VALID,0.417969,
2011-10-10, 01:36:04,VALID,1004.53,VALID,0,VALID,95.5975,VALID,0,VALID,23.5071,VALID,354,VALID,0.432422,
2011-10-10, 01:37:04,VALID,1004.55,VALID,0,VALID,95.6204,VALID,0,VALID,23.5266,VALID,354,VALID,0.587109,
2011-10-10, 01:38:04,VALID,1004.52,VALID,0,VALID,95.6128,VALID,0,VALID,23.5071,VALID,355,VALID,0.561719,
2011-10-10, 01:39:04,VALID,1004.52,VALID,0,VALID,95.6128,VALID,0,VALID,23.5071,VALID,356,VALID,0.695703,
2011-10-10, 01:40:04,VALID,1004.51,VALID,0,VALID,95.5975,VALID,0,VALID,23.5071,VALID,356,VALID,0.661328,
2011-10-10, 01:41:04,VALID,1004.51,VALID,0,VALID,95.5975,VALID,0,VALID,23.5071,VALID,356,VALID,0.605078,
2011-10-10, 01:42:04,VALID,1004.53,VALID,0,VALID,95.6051,VALID,0,VALID,23.5071,VALID,356,VALID,0.5875,
2011-10-10, 01:43:04,VALID,1004.5,VALID,0,VALID,95.628,VALID,0,VALID,23.4877,VALID,356,VALID,0.539844,
2011-10-10, 01:44:04,VALID,1004.49,VALID,0,VALID,95.6204,VALID,0,VALID,23.5284,VALID,356,VALID,0.505859,
2011-10-10, 01:45:04,VALID,1004.47,VALID,0,VALID,95.6814,VALID,0,VALID,23.5071,VALID,356,VALID,0.429688,
2011-10-10, 01:46:04,VALID,1004.41,VALID,0,VALID,95.6814,VALID,0,VALID,23.5071,VALID,356,VALID,0.479688,
2011-10-10, 01:47:04,VALID,1004.42,VALID,0,VALID,95.689,VALID,0,VALID,23.5071,VALID,356,VALID,0.462891,
2011-10-10, 01:48:04,VALID,1004.43,VALID,0,VALID,95.6967,VALID,0,VALID,23.5071,VALID,356,VALID,0.495313,
2011-10-10, 01:49:04,VALID,1004.42,VALID,0,VALID,95.6814,VALID,0,VALID,23.5266,VALID,356,VALID,0.531641,
2011-10-10, 01:50:04,VALID,1004.45,VALID,0,VALID,95.6814,VALID,0,VALID,23.5266,VALID,356,VALID,0.492969,
2011-10-10, 01:51:04,VALID,1004.47,VALID,0,VALID,95.6356,VALID,0,VALID,23.5071,VALID,356,VALID,0.360156,
2011-10-10, 01:52:04,VALID,1004.47,VALID,0,VALID,95.6509,VALID,0,VALID,23.5071,VALID,356,VALID,0.291797,
2011-10-10, 01:53:04,VALID,1004.49,VALID,0,VALID,95.6128,VALID,0,VALID,23.5071,VALID,356,VALID,0.349609,
2011-10-10, 01:54:04,VALID,1004.48,VALID,0,VALID,95.6204,VALID,0,VALID,23.4877,VALID,356,VALID,0.497656,
2011-10-10, 01:55:04,VALID,1004.52,VALID,0,VALID,95.6204,VALID,0,VALID,23.5071,VALID,356,VALID,0.675781,
2011-10-10, 01:56:04,VALID,1004.49,VALID,0,VALID,95.6662,VALID,0,VALID,23.5089,VALID,356,VALID,0.678516,
2011-10-10, 01:57:04,VALID,1004.49,VALID,0,VALID,95.6356,VALID,0,VALID,23.5071,VALID,356,VALID,0.553125,
2011-10-10, 01:58:04,VALID,1004.48,VALID,0,VALID,95.6356,VALID,0,VALID,23.5071,VALID,356,VALID,0.38125,
2011-10-10, 01:59:04,VALID,1004.48,VALID,0,VALID,95.6128,VALID,0,VALID,23.5071,VALID,356,VALID,0.360156,
2011-10-10, 02:00:04,VALID,1004.43,VALID,0,VALID,95.6051,VALID,0,VALID,23.5284,VALID,356,VALID,0.307422,
2011-10-10, 02:01:04,VALID,1004.44,VALID,0,VALID,95.6128,VALID,0,VALID,23.5071,VALID,356,VALID,0.268359,
2011-10-10, 02:02:04,VALID,1004.45,VALID,0,VALID,95.6128,VALID,0,VALID,23.5071,VALID,356,VALID,0.367188,
2011-10-10, 02:03:04,VALID,1004.46,VALID,0,VALID,95.6051,VALID,0,VALID,23.5071,VALID,356,VALID,0.353516,
2011-10-10, 02:04:04,VALID,1004.45,VALID,0,VALID,95.5899,VALID,0,VALID,23.5284,VALID,356,VALID,0.291016,
2011-10-10, 02:05:04,VALID,1004.46,VALID,0,VALID,95.6433,VALID,0,VALID,23.5284,VALID,356,VALID,0.0816406,
2011-10-10, 02:06:04,VALID,1004.49,VALID,0,VALID,95.6433,VALID,0,VALID,23.5071,VALID,356,VALID,0,
2011-10-10, 02:07:04,VALID,1004.5,VALID,0,VALID,95.6128,VALID,0,VALID,23.4664,VALID,356,VALID,0.0539063,
2011-10-10, 02:08:04,VALID,1004.53,VALID,0,VALID,95.5975,VALID,0,VALID,23.5089,VALID,356,VALID,0.0207031,
2011-10-10, 02:09:04,VALID,1004.55,VALID,0,VALID,95.6128,VALID,0.0815089,VALID,23.4682,VALID,356,VALID,0,
2011-10-10, 02:10:04,VALID,1004.56,VALID,0,VALID,95.6662,VALID,0,VALID,23.4682,VALID,356,VALID,0,
2011-10-10, 02:11:04,VALID,1004.55,VALID,0,VALID,95.6662,VALID,0,VALID,23.4682,VALID,356,VALID,0,
2011-10-10, 02:12:04,VALID,1004.57,VALID,0,VALID,95.6738,VALID,0,VALID,23.4682,VALID,356,VALID,0.184375,
2011-10-10, 02:13:04,VALID,1004.56,VALID,0,VALID,95.7196,VALID,0,VALID,23.4894,VALID,356,VALID,0.0953125,
2011-10-10, 02:14:04,VALID,1004.58,VALID,0,VALID,95.689,VALID,0,VALID,23.4894,VALID,356,VALID,0.188281,
2011-10-10, 02:15:04,VALID,1004.56,VALID,0,VALID,95.6738,VALID,0,VALID,23.4487,VALID,356,VALID,0.336328,
2011-10-10, 02:16:04,VALID,1004.58,VALID,0,VALID,95.689,VALID,0,VALID,23.4682,VALID,356,VALID,0.458203,
2011-10-10, 02:17:04,VALID,1004.62,VALID,0,VALID,95.7043,VALID,0,VALID,23.4877,VALID,356,VALID,0.537891,
2011-10-10, 02:18:04,VALID,1004.61,VALID,0,VALID,95.7196,VALID,0,VALID,23.5089,VALID,356,VALID,0.512891,
2011-10-10, 02:19:04,VALID,1004.6,VALID,0,VALID,95.7119,VALID,0,VALID,23.4682,VALID,356,VALID,0.572266,
2011-10-10, 02:20:04,VALID,1004.6,VALID,0,VALID,95.7348,VALID,0,VALID,23.4682,VALID,356,VALID,0.496484,
2011-10-10, 02:21:04,VALID,1004.61,VALID,0,VALID,95.6967,VALID,0,VALID,23.4487,VALID,356,VALID,0.399609,
2011-10-10, 02:22:04,VALID,1004.63,VALID,0,VALID,95.6814,VALID,0,VALID,23.4487,VALID,356,VALID,0.449609,
2011-10-10, 02:23:04,VALID,1004.61,VALID,0,VALID,95.689,VALID,0,VALID,23.4311,VALID,356,VALID,0.267578,
2011-10-10, 02:24:04,VALID,1004.61,VALID,0,VALID,95.7043,VALID,0,VALID,23.4098,VALID,356,VALID,0.257422,
2011-10-10, 02:25:04,VALID,1004.59,VALID,0,VALID,95.689,VALID,0,VALID,23.4311,VALID,356,VALID,0.307031,
2011-10-10, 02:26:04,VALID,1004.59,VALID,0,VALID,95.7424,VALID,0,VALID,23.4116,VALID,356,VALID,0.520312,
2011-10-10, 02:27:04,VALID,1004.6,VALID,0,VALID,95.7119,VALID,0,VALID,23.3904,VALID,356,VALID,0.495703,
2011-10-10, 02:28:04,VALID,1004.61,VALID,0,VALID,95.7501,VALID,0,VALID,23.3904,VALID,356,VALID,0.357812,
2011-10-10, 02:29:04,VALID,1004.58,VALID,0,VALID,95.8111,VALID,0,VALID,23.4116,VALID,356,VALID,0.333984,
2011-10-10, 02:30:04,VALID,1004.6,VALID,0,VALID,95.8264,VALID,0,VALID,23.3904,VALID,356,VALID,0.357812,
2011-10-10, 02:31:04,VALID,1004.58,VALID,0,VALID,95.773,VALID,0,VALID,23.3904,VALID,356,VALID,0.366016,
2011-10-10, 02:32:04,VALID,1004.6,VALID,0,VALID,95.7882,VALID,0,VALID,23.3904,VALID,356,VALID,0.323828,
2011-10-10, 02:33:04,VALID,1004.58,VALID,0,VALID,95.8187,VALID,0,VALID,23.3904,VALID,356,VALID,0.358984,
2011-10-10, 02:34:04,VALID,1004.56,VALID,0,VALID,95.8416,VALID,0,VALID,23.3921,VALID,356,VALID,0.455078,
2011-10-10, 02:35:04,VALID,1004.6,VALID,0,VALID,95.834,VALID,0,VALID,23.3709,VALID,356,VALID,0.408594,
2011-10-10, 02:36:05,VALID,1004.58,VALID,0,VALID,95.8645,VALID,0,VALID,23.3497,VALID,356,VALID,0.446484,
2011-10-10, 02:37:05,VALID,1004.54,VALID,0,VALID,95.895,VALID,0,VALID,23.3727,VALID,356,VALID,0.480469,
2011-10-10, 02:38:05,VALID,1004.51,VALID,0,VALID,95.8798,VALID,0,VALID,23.3709,VALID,356,VALID,0.520703,
2011-10-10, 02:39:05,VALID,1004.53,VALID,0,VALID,95.9179,VALID,0,VALID,23.3514,VALID,356,VALID,0.597266,
2011-10-10, 02:40:05,VALID,1004.52,VALID,0,VALID,95.9408,VALID,0,VALID,23.3514,VALID,356,VALID,0.439844,
2011-10-10, 02:41:05,VALID,1004.5,VALID,0,VALID,95.9179,VALID,0,VALID,23.3709,VALID,356,VALID,0.652344,
2011-10-10, 02:42:05,VALID,1004.5,VALID,0,VALID,95.9103,VALID,0,VALID,23.3532,VALID,356,VALID,0.563672,
2011-10-10, 02:43:05,VALID,1004.51,VALID,0,VALID,95.8798,VALID,0,VALID,23.3125,VALID,356,VALID,0.528906,
2011-10-10, 02:44:05,VALID,1004.49,VALID,0,VALID,95.9408,VALID,0,VALID,23.3532,VALID,356,VALID,0.585938,
2011-10-10, 02:45:05,VALID,1004.5,VALID,0,VALID,95.9637,VALID,0,VALID,23.3125,VALID,356,VALID,0.623438,
2011-10-10, 02:46:05,VALID,1004.49,VALID,0,VALID,95.9789,VALID,0,VALID,23.3337,VALID,356,VALID,0.579297,
2011-10-10, 02:47:05,VALID,1004.51,VALID,0,VALID,95.9866,VALID,0,VALID,23.3125,VALID,356,VALID,0.530078,
2011-10-10, 02:48:05,VALID,1004.49,VALID,0,VALID,95.9942,VALID,0,VALID,23.3125,VALID,356,VALID,0.481641,
2011-10-10, 02:49:05,VALID,1004.49,VALID,0,VALID,95.9866,VALID,0,VALID,23.3125,VALID,356,VALID,0.540234,
2011-10-10, 02:50:05,VALID,1004.48,VALID,0,VALID,95.9942,VALID,0,VALID,23.3125,VALID,356,VALID,0.523047,
2011-10-10, 02:51:05,VALID,1004.5,VALID,0,VALID,96.0018,VALID,0,VALID,23.3125,VALID,356,VALID,0.473828,
2011-10-10, 02:52:05,VALID,1004.5,VALID,0,VALID,96.0171,VALID,0,VALID,23.3125,VALID,356,VALID,0.482812,
2011-10-10, 02:53:05,VALID,1004.5,VALID,0,VALID,96.0095,VALID,0,VALID,23.2931,VALID,356,VALID,0.543359,
2011-10-10, 02:54:05,VALID,1004.5,VALID,0,VALID,95.9942,VALID,0,VALID,23.2718,VALID,356,VALID,0.524609,
2011-10-10, 02:55:05,VALID,1004.52,VALID,0,VALID,96.0476,VALID,0,VALID,23.3125,VALID,356,VALID,0.572266,
2011-10-10, 02:56:05,VALID,1004.51,VALID,0,VALID,96.04,VALID,0,VALID,23.332,VALID,355,VALID,0.662109,
2011-10-10, 02:57:05,VALID,1004.51,VALID,0,VALID,95.9866,VALID,0,VALID,23.3337,VALID,355,VALID,0.597656,
2011-10-10, 02:58:05,VALID,1004.49,VALID,0,VALID,95.9561,VALID,0,VALID,23.3125,VALID,354,VALID,0.600781,
2011-10-10, 02:59:05,VALID,1004.49,VALID,0,VALID,95.9408,VALID,0,VALID,23.2736,VALID,354,VALID,0.548437,
2011-10-10, 03:00:05,VALID,1004.48,VALID,0,VALID,95.9942,VALID,0,VALID,23.2931,VALID,354,VALID,0.653906,
2011-10-10, 03:01:05,VALID,1004.48,VALID,0,VALID,96.0018,VALID,0,VALID,23.2931,VALID,354,VALID,0.587109,
2011-10-10, 03:02:05,VALID,1004.5,VALID,0,VALID,95.9866,VALID,0,VALID,23.2736,VALID,354,VALID,0.502734,
2011-10-10, 03:03:05,VALID,1004.53,VALID,0,VALID,95.9789,VALID,0,VALID,23.2931,VALID,354,VALID,0.512891,
2011-10-10, 03:04:05,VALID,1004.51,VALID,0,VALID,95.9637,VALID,0,VALID,23.2524,VALID,355,VALID,0.478516,
2011-10-10, 03:05:05,VALID,1004.53,VALID,0,VALID,95.9866,VALID,0,VALID,23.2754,VALID,354,VALID,0.428906,
2011-10-10, 03:06:05,VALID,1004.53,VALID,0,VALID,95.9866,VALID,0,VALID,23.2736,VALID,354,VALID,0,
2011-10-10, 03:07:05,VALID,1004.5,VALID,0,VALID,95.9561,VALID,0,VALID,23.2736,VALID,354,VALID,0,
2011-10-10, 03:08:05,VALID,1004.48,VALID,0,VALID,95.9713,VALID,0,VALID,23.2736,VALID,354,VALID,0.251172,
2011-10-10, 03:09:05,VALID,1004.47,VALID,0,VALID,95.9789,VALID,0,VALID,23.2736,VALID,354,VALID,0.367969,
2011-10-10, 03:10:05,VALID,1004.44,VALID,0,VALID,95.9713,VALID,0,VALID,23.2931,VALID,354,VALID,0.393359,
2011-10-10, 03:11:05,VALID,1004.46,VALID,0,VALID,95.9332,VALID,0,VALID,23.2931,VALID,355,VALID,0.360938,
2011-10-10, 03:12:05,VALID,1004.43,VALID,0,VALID,95.9027,VALID,0,VALID,23.2931,VALID,354,VALID,0.429688,
2011-10-10, 03:13:05,VALID,1004.43,VALID,0,VALID,95.8416,VALID,0,VALID,23.2736,VALID,355,VALID,0.495703,
2011-10-10, 03:14:05,VALID,1004.43,VALID,0,VALID,95.8493,VALID,0,VALID,23.2736,VALID,354,VALID,0.560547,
2011-10-10, 03:15:05,VALID,1004.42,VALID,0,VALID,95.8493,VALID,0,VALID,23.2736,VALID,354,VALID,0.395703,
2011-10-10, 03:16:05,VALID,1004.39,VALID,0,VALID,95.8264,VALID,0,VALID,23.2754,VALID,354,VALID,0.257813,
2011-10-10, 03:17:05,VALID,1004.42,VALID,0,VALID,95.8264,VALID,0,VALID,23.2559,VALID,354,VALID,0.326953,
2011-10-10, 03:18:05,VALID,1004.41,VALID,0,VALID,95.8569,VALID,0,VALID,23.2347,VALID,355,VALID,0.282813,
2011-10-10, 03:19:05,VALID,1004.41,VALID,0,VALID,95.8264,VALID,0,VALID,23.2152,VALID,355,VALID,0,
2011-10-10, 03:20:05,VALID,1004.4,VALID,0,VALID,95.8111,VALID,0,VALID,23.2152,VALID,355,VALID,0,
2011-10-10, 03:21:05,VALID,1004.42,VALID,0,VALID,95.7653,VALID,0,VALID,23.1957,VALID,355,VALID,0,
2011-10-10, 03:22:05,VALID,1004.4,VALID,0,VALID,95.8264,VALID,0,VALID,23.217,VALID,355,VALID,0,
2011-10-10, 03:23:05,VALID,1004.38,VALID,0,VALID,95.8721,VALID,0,VALID,23.1957,VALID,354,VALID,0,
2011-10-10, 03:24:05,VALID,1004.39,VALID,0,VALID,95.8645,VALID,0,VALID,23.1957,VALID,354,VALID,0,
2011-10-10, 03:25:05,VALID,1004.38,VALID,0,VALID,95.8798,VALID,0,VALID,23.1763,VALID,355,VALID,0.344922,
2011-10-10, 03:26:05,VALID,1004.37,VALID,0,VALID,95.8874,VALID,0,VALID,23.217,VALID,355,VALID,0.392578,
2011-10-10, 03:27:05,VALID,1004.36,VALID,0,VALID,95.8569,VALID,0,VALID,23.1975,VALID,354,VALID,0.523438,
2011-10-10, 03:28:05,VALID,1004.36,VALID,0,VALID,95.8264,VALID,0,VALID,23.1568,VALID,355,VALID,0.546094,
2011-10-10, 03:29:05,VALID,1004.37,VALID,0,VALID,95.7959,VALID,0,VALID,23.1586,VALID,355,VALID,0.519922,
2011-10-10, 03:30:05,VALID,1004.38,VALID,0,VALID,95.8111,VALID,0,VALID,23.0984,VALID,354,VALID,0.551172,
2011-10-10, 03:31:05,VALID,1004.39,VALID,0,VALID,95.9027,VALID,0,VALID,23.1179,VALID,354,VALID,0.465234,
2011-10-10, 03:32:05,VALID,1004.39,VALID,0,VALID,95.8874,VALID,0,VALID,23.0984,VALID,354,VALID,0.546094,
2011-10-10, 03:33:05,VALID,1004.4,VALID,0,VALID,95.8264,VALID,0,VALID,23.1002,VALID,354,VALID,0.480859,
2011-10-10, 03:34:05,VALID,1004.39,VALID,0,VALID,95.9408,VALID,0,VALID,23.079,VALID,354,VALID,0.410937,
2011-10-10, 03:35:05,VALID,1004.42,VALID,0,VALID,95.9866,VALID,0,VALID,23.079,VALID,354,VALID,0.428906,
2011-10-10, 03:36:05,VALID,1004.42,VALID,0,VALID,96.0323,VALID,0,VALID,23.079,VALID,354,VALID,0.499609,
2011-10-10, 03:37:05,VALID,1004.43,VALID,0,VALID,96.0018,VALID,0,VALID,23.079,VALID,355,VALID,0.553906,
2011-10-10, 03:38:05,VALID,1004.41,VALID,0,VALID,95.9561,VALID,0,VALID,23.0578,VALID,355,VALID,0.662109,
2011-10-10, 03:39:05,VALID,1004.42,VALID,0,VALID,95.9942,VALID,0,VALID,23.0595,VALID,355,VALID,0.705078,
2011-10-10, 03:40:05,VALID,1004.42,VALID,0,VALID,96.0323,VALID,0,VALID,23.0807,VALID,355,VALID,0.532422,
2011-10-10, 03:41:05,VALID,1004.43,VALID,0,VALID,96.0018,VALID,0,VALID,23.0595,VALID,355,VALID,0.427734,
2011-10-10, 03:42:05,VALID,1004.42,VALID,0,VALID,95.9637,VALID,0,VALID,23.0613,VALID,355,VALID,0.374609,
2011-10-10, 03:43:05,VALID,1004.41,VALID,0,VALID,95.9103,VALID,0,VALID,23.0012,VALID,355,VALID,0.284375,
2011-10-10, 03:44:05,VALID,1004.37,VALID,0,VALID,95.9484,VALID,0.0815089,VALID,23.0012,VALID,355,VALID,0.271094,
2011-10-10, 03:45:05,VALID,1004.39,VALID,0,VALID,96.0323,VALID,0,VALID,23.0224,VALID,355,VALID,0.207031,
2011-10-10, 03:46:05,VALID,1004.38,VALID,0,VALID,96.0095,VALID,0,VALID,22.9817,VALID,355,VALID,0.0949219,